Regional Weather Roundup
Issued by NWS Memphis, TN

Home | Current Version | Previous Version | Text Only | Print | Product List | Glossary On
Versions: 1 2 3 4 5 6 7 8 9 10 11 12 13 14 15 16 17 18 19 20 21 22 23 24 25 26 27 28 29 30 31 32 33 34 35 36 37 38 39 40 41 42 43 44 45 46 47 48 49 50
000
ASUS44 KMEG 291800
RWRMEG
MEMPHIS CWA HOURLY WEATHER ROUNDUP
NATIONAL WEATHER SERVICE MEMPHIS TN
100 PM CDT SAT AUG 29 2015

...WEST TENNESSEE...

CITY           SKY/WX    TMP DP  RH WIND       PRES   REMARKS
MEMPHIS INTL   MOSUNNY   91  64  40 VRB6      30.07F HX  92
6HR MIN TEMP:  72; 6HR MAX TEMP:  92;

NWS MEMPHIS      N/A     89 N/A N/A MISG        N/A
JACKSON        SUNNY     89  67  47 SW7       30.08F HX  92
6HR MIN TEMP:  72; 6HR MAX TEMP:  89;

LEXINGTON      MOSUNNY   84  72  65 SW6       30.09F
DYERSBURG      PTSUNNY  N/A N/A N/A MISG        N/A
UNION CITY     SUNNY     90  72  55 VRB5      30.06F HX  96
PARIS          MOSUNNY   86  64  48 S8        30.08F


...EASTERN ARKANSAS...

CITY           SKY/WX    TMP DP  RH WIND       PRES   REMARKS
JONESBORO      CLOUDY    84  67  56 VRB7      30.07F
6HR MIN TEMP:  66; 6HR MAX TEMP:  84;

WEST MEMPHIS   MOSUNNY   89  65  44 W6        30.05F HX  91
6HR MIN TEMP:  69; 6HR MAX TEMP:  89;

BATESVILLE     CLOUDY    73  66  78 CALM      30.08F
6HR MIN TEMP:  66; 6HR MAX TEMP:  75;

WALNUT RIDGE   CLOUDY    79  63  57 N3        30.07F
6HR MIN TEMP:  68; 6HR MAX TEMP:  81;

BLYTHEVILLE    PTSUNNY   85  69  58 W7        30.07F
6HR MIN TEMP:  71; 6HR MAX TEMP:  88;

SEARCY         CLOUDY    84  65  52 CALM      30.08F
6HR MIN TEMP:  66; 6HR MAX TEMP:  84;

STUTTGART      CLOUDY    84  63  48 SW3       30.07F
6HR MIN TEMP:  66; 6HR MAX TEMP:  86;

PINE BLUFF     PTSUNNY   86  63  45 VRB3      30.06F
6HR MIN TEMP:  64; 6HR MAX TEMP:  86;

MONTICELLO     PTSUNNY   92  63  38 W10       30.05F HX  93
6HR MIN TEMP:  64; 6HR MAX TEMP:  92;



...NORTH MISSISSIPPI...

CITY           SKY/WX    TMP DP  RH WIND       PRES   REMARKS
TUPELO         SUNNY     85  72  65 S6        30.09F HX  91
6HR MIN TEMP:  73; 6HR MAX TEMP:  86;

OXFORD         MOSUNNY   84  68  58 E5        30.09F
OLIVE BRANCH   MOSUNNY   90  68  48 S9        30.07F HX  93
TUNICA         SUNNY     90  64  43 S6        30.07F HX  91
GREENWOOD      MOSUNNY   89  67  47 VRB5      30.06F HX  92
6HR MIN TEMP:  70; 6HR MAX TEMP:  89;

COLUMBUS       MOSUNNY   86  70  58 VRB5      30.08F HX  90
6HR MIN TEMP:  71; 6HR MAX TEMP:  87;

STARKVILLE     MOCLDY    86  68  54 S5        30.09F
GOLDEN TRIANGL PTSUNNY   84  66  54 S7        30.09F


...SOUTHEAST MISSOURI...

CITY           SKY/WX    TMP DP  RH WIND       PRES   REMARKS
WEST PLAINS    CLOUDY    69  65  86 S6        30.08F
6HR MIN TEMP:  65; 6HR MAX TEMP:  70; 6HR PCP:  0.14;

POPLAR BLUFF   CLOUDY    78  68  71 SW7       30.06F
6HR MIN TEMP:  68; 6HR MAX TEMP:  81; 6HR PCP: TRACE;

CAPE GIRARDEAU CLOUDY    81  70  69 SW8       30.06F
6HR MIN TEMP:  69; 6HR MAX TEMP:  82;



...NORTHWEST ALABAMA...

CITY           SKY/WX    TMP DP  RH WIND       PRES   REMARKS
MUSCLE SHOALS  PTSUNNY   83  71  67 SW6       30.12F
6HR MIN TEMP:  69; 6HR MAX TEMP:  86;



...MIDDLE TENNESSEE...

CITY           SKY/WX    TMP DP  RH WIND       PRES   REMARKS
NASHVILLE      PTSUNNY   86  68  54 VRB5      30.11F
6HR MIN TEMP:  72; 6HR MAX TEMP:  87;

CLARKSVILLE    MOSUNNY   87  65  47 VRB5      30.08F
6HR MIN TEMP:  67; 6HR MAX TEMP:  87; 6HR PCP: TRACE;

COLUMBIA       MOSUNNY   86  73  66 SW6       30.10F HX  93


...WESTERN KENTUCKY...

CITY           SKY/WX    TMP DP  RH WIND       PRES   REMARKS
PADUCAH        PTSUNNY   84  69  60 W7        30.06F
6HR MIN TEMP:  72; 6HR MAX TEMP:  85;



...CENTRAL ARKANSAS...

CITY           SKY/WX    TMP DP  RH WIND       PRES   REMARKS
LITTLE ROCK    PTSUNNY   88  63  43 VRB3      30.05F
6HR MIN TEMP:  69; 6HR MAX TEMP:  91;



SKY/WX REPORTED AS FAIR MEANS FEW OR NO CLOUDS BELOW
12 THOUSAND FEET.



USA.gov is the U.S. government's official web portal to all federal, state and local government web resources and services.